Weather History for KPOV - January, 2013

Change the Weather History Date:

Sunday, January 20, 2013

  Actual Average (KCAK) Record (KCAK)
Temperature  
Mean Temperature 33 °F 26 °F  
Max Temperature 45 °F 33 °F 62 °F (1974)
Min Temperature 19 °F 19 °F -24 °F (1985)
Degree Days  
Heating Degree Days 32 39  
Month to date heating degree days 778  
Since 1 July heating degree days 3108  
Cooling Degree Days 0 0  
Month to date cooling degree days 0  
Year to date cooling degree days 0  
Moisture  
Dew Point 14 °F    
Average Humidity 56    
Maximum Humidity 78    
Minimum Humidity 43    
Precipitation  
Precipitation 0.00 in 0.08 in 0.75 in (1954)
Month to date precipitation 1.71  
Year to date precipitation 1.71  
Snow  
Snow 0.00 in 0.40 in - ()
Month to date snowfall 8.0  
Since 1 July snowfall 21.6  
Snow Depth -    
Sea Level Pressure  
Sea Level Pressure 29.97 in    
Wind  
Wind Speed 17 mph (West)    
Max Wind Speed 37 mph    
Max Gust Speed 53 mph    
Visibility 10 miles    
Events Snow    
T = Trace of Precipitation, MM = Missing Value Source: NWS Daily Summary

Daily Weather History Graph

Daily Weather History Graph

Search for Another Location

Airport or City:

Trip Planner

Search our weather history database for the weather conditions in past years. The results will help you decide how hot, cold, wet, or windy it might be!

Date:

Astronomy

Jan. 20, 2013 Rise Set
Actual Time 7:45 AM EST 5:27 PM EST
Civil Twilight 7:15 AM EST 5:57 PM EST
Nautical Twilight 6:41 AM EST 6:30 PM EST
Astronomical Twilight 6:08 AM EST 7:03 PM EST
Moon 12:27 PM EST (1/20) 2:16 AM EST (1/20)
Length of Visible Light 10h 41m
Length of Day
9h 41m
Waxing Gibbous, 66% of the Moon is Illuminated
Jan 20
Waxing Gibbous
Jan 26
Full
Feb 3
Last Quarter
Feb 10
New
Feb 17
First Quarter

Hourly Weather History & Observations

Time (EST) Temp. Windchill Dew Point Humidity Pressure Visibility Wind Dir Wind Speed Gust Speed Precip Events Conditions
12:15 AM 45.5 °F 39.2 °F 25.7 °F 46% 29.71 in 10.0 mi SW 13.8 mph 28.8 mph N/A   Overcast
12:35 AM 45.5 °F 39.2 °F 26.1 °F 47% 29.70 in 10.0 mi SW 13.8 mph 25.3 mph N/A   Overcast
12:56 AM 45.5 °F 38.6 °F 26.6 °F 48% 29.70 in 10.0 mi SW 16.1 mph 23.0 mph N/A   Overcast
1:15 AM 45.1 °F 38.1 °F 27.3 °F 50% 29.70 in 10.0 mi WSW 16.1 mph 26.5 mph N/A   Overcast
1:35 AM 45.0 °F 37.9 °F 28.0 °F 52% 29.68 in 10.0 mi SW 16.1 mph 26.5 mph N/A   Overcast
1:55 AM 44.2 °F 38.4 °F 28.4 °F 54% 29.69 in 10.0 mi SW 11.5 mph 24.2 mph N/A   Mostly Cloudy
2:15 AM 43.9 °F 36.5 °F 28.4 °F 55% 29.68 in 10.0 mi SW 16.1 mph 23.0 mph N/A   Scattered Clouds
2:35 AM 43.7 °F 36.3 °F 28.9 °F 56% 29.68 in 10.0 mi WSW 16.1 mph 25.3 mph N/A   Clear
3:15 AM 43.3 °F 36.1 °F 29.7 °F 59% 29.69 in 10.0 mi WSW 15.0 mph 25.3 mph N/A   Mostly Cloudy
3:35 AM 43.7 °F 35.7 °F 30.2 °F 59% 29.70 in 10.0 mi WSW 18.4 mph 27.6 mph N/A   Overcast
3:56 AM 43.0 °F 33.3 °F 29.7 °F 59% 29.70 in 10.0 mi WSW 25.3 mph 35.7 mph N/A   Mostly Cloudy
4:15 AM 42.4 °F 30.8 °F 21.2 °F 43% 29.71 in 10.0 mi WSW 36.8 mph 52.9 mph N/A   Scattered Clouds
4:35 AM 41.0 °F 29.7 °F 19.8 °F 43% 29.73 in 10.0 mi West 31.1 mph 48.3 mph N/A   Clear
4:55 AM 39.4 °F 30.1 °F 21.7 °F 49% 29.74 in 10.0 mi WSW 18.4 mph 36.8 mph N/A   Clear
5:15 AM 38.5 °F 26.9 °F 19.4 °F 46% 29.75 in 10.0 mi West 27.6 mph 38.0 mph N/A   Scattered Clouds
5:35 AM 36.9 °F 24.9 °F 18.5 °F 47% 29.77 in 10.0 mi West 26.5 mph 46.0 mph N/A   Scattered Clouds
5:55 AM 36.5 °F 23.7 °F 19.0 °F 49% 29.78 in 10.0 mi West 29.9 mph 41.4 mph N/A   Mostly Cloudy
6:15 AM 35.8 °F 24.8 °F 19.2 °F 51% 29.80 in 10.0 mi West 20.7 mph 31.1 mph N/A   Overcast
6:35 AM 32.4 °F 19.7 °F 17.2 °F 54% 29.83 in 10.0 mi WNW 23.0 mph 35.7 mph N/A   Mostly Cloudy
6:55 AM 31.6 °F 19.0 °F 16.0 °F 52% 29.86 in 10.0 mi West 21.9 mph 33.4 mph N/A   Mostly Cloudy
7:15 AM 30.7 °F 18.8 °F 14.4 °F 51% 29.88 in 10.0 mi West 18.4 mph 32.2 mph N/A   Scattered Clouds
7:35 AM 28.6 °F 15.0 °F 14.7 °F 56% 29.90 in 10.0 mi West 21.9 mph 29.9 mph N/A   Scattered Clouds
7:55 AM 27.9 °F 12.5 °F 14.0 °F 56% 29.91 in 10.0 mi West 27.6 mph 35.7 mph N/A   Scattered Clouds
8:15 AM 27.5 °F 12.6 °F 13.1 °F 55% 29.92 in 10.0 mi West 25.3 mph 33.4 mph N/A   Scattered Clouds
8:35 AM 27.1 °F 11.6 °F 12.7 °F 55% 29.94 in 10.0 mi West 27.6 mph 35.7 mph N/A   Scattered Clouds
8:55 AM 27.1 °F 12.7 °F 12.0 °F 53% 29.96 in 10.0 mi West 23.0 mph 34.5 mph N/A   Overcast
9:15 AM 28.0 °F 14.9 °F 12.6 °F 52% 29.97 in 10.0 mi West 19.6 mph 25.3 mph N/A   Overcast
9:35 AM 27.0 °F 12.2 °F 11.7 °F 53% 29.99 in 10.0 mi West 24.2 mph 29.9 mph N/A   Overcast
9:55 AM 25.9 °F 11.1 °F 10.2 °F 52% 30.01 in 10.0 mi West 23.0 mph 36.8 mph N/A   Overcast
10:15 AM 25.2 °F 10.1 °F 10.6 °F 54% 30.03 in 10.0 mi West 23.0 mph 29.9 mph N/A   Overcast
10:35 AM 23.9 °F 8.4 °F 13.3 °F 64% 30.05 in 7.0 mi West 23.0 mph 28.8 mph N/A Snow Light Snow
10:56 AM 24.1 °F 9.4 °F 10.8 °F 57% 30.06 in 10.0 mi West 20.7 mph 27.6 mph N/A   Overcast
11:15 AM 23.9 °F 8.1 °F 10.6 °F 57% 30.07 in 10.0 mi West 24.2 mph 29.9 mph N/A   Overcast
11:35 AM 23.2 °F 10.3 °F 13.3 °F 66% 30.08 in 7.0 mi West 15.0 mph 19.6 mph N/A Snow Light Snow
11:55 AM 22.8 °F 10.4 °F 14.7 °F 71% 30.07 in 5.0 mi WNW 13.8 mph 24.2 mph N/A Snow Light Snow
12:15 PM 21.4 °F 8.0 °F 15.3 °F 77% 30.07 in 1.5 mi West 15.0 mph 24.2 mph N/A Snow Light Snow
12:35 PM 21.2 °F 8.9 °F 15.4 °F 78% 30.08 in 1.5 mi West 12.7 mph - N/A Snow Light Snow
12:55 PM 21.6 °F 6.9 °F 13.6 °F 72% 30.08 in 7.0 mi West 18.4 mph 24.2 mph N/A Snow Light Snow
1:15 PM 22.1 °F 8.9 °F 11.8 °F 65% 30.08 in 10.0 mi West 15.0 mph 20.7 mph N/A   Overcast
1:35 PM 22.5 °F 10.5 °F 10.0 °F 59% 30.08 in 10.0 mi WNW 12.7 mph 23.0 mph N/A   Overcast
1:55 PM 23.0 °F 9.6 °F 9.1 °F 55% 30.08 in 10.0 mi West 16.1 mph 21.9 mph N/A   Overcast
2:15 PM 22.8 °F 10.4 °F 9.3 °F 56% 30.08 in 10.0 mi West 13.8 mph 23.0 mph N/A   Overcast
2:35 PM 24.1 °F 13.7 °F 8.8 °F 52% 30.08 in 10.0 mi WNW 10.4 mph 18.4 mph N/A   Overcast
2:56 PM 24.6 °F 13.2 °F 8.4 °F 50% 30.08 in 10.0 mi West 12.7 mph - N/A   Mostly Cloudy
3:15 PM 23.9 °F 12.3 °F 8.2 °F 51% 30.07 in 10.0 mi WSW 12.7 mph - N/A   Mostly Cloudy
3:35 PM 24.8 °F 15.3 °F 8.2 °F 49% 30.07 in 10.0 mi West 9.2 mph - N/A   Scattered Clouds
3:55 PM 24.3 °F 12.7 °F 9.5 °F 53% 30.08 in 10.0 mi West 12.7 mph 20.7 mph N/A   Mostly Cloudy
4:15 PM 23.5 °F 11.8 °F 8.4 °F 53% 30.10 in 10.0 mi West 12.7 mph 21.9 mph N/A   Scattered Clouds
4:35 PM 23.5 °F 14.5 °F 9.3 °F 55% 30.10 in 10.0 mi WSW 8.1 mph 17.3 mph N/A   Mostly Cloudy
4:55 PM 23.2 °F 12.6 °F 8.8 °F 54% 30.10 in 10.0 mi West 10.4 mph - N/A   Overcast
5:15 PM 22.8 °F 10.9 °F 8.8 °F 55% 30.11 in 10.0 mi West 12.7 mph - N/A   Overcast
5:35 PM 23.0 °F 11.1 °F 9.1 °F 55% 30.11 in 10.0 mi West 12.7 mph 20.7 mph N/A   Overcast
5:56 PM 22.6 °F 10.1 °F 8.1 °F 54% 30.10 in 10.0 mi West 13.8 mph 19.6 mph N/A   Overcast
6:15 PM 22.6 °F 10.1 °F 9.0 °F 56% 30.11 in 10.0 mi West 13.8 mph - N/A   Unknown
6:35 PM 22.6 °F 11.3 °F 9.5 °F 57% 30.11 in 10.0 mi West 11.5 mph - N/A   Unknown
6:55 PM 22.8 °F 12.2 °F 9.3 °F 56% 30.11 in 10.0 mi West 10.4 mph - N/A   Overcast
7:15 PM 22.6 °F 10.7 °F 9.1 °F 56% 30.12 in 10.0 mi West 12.7 mph 21.9 mph N/A   Overcast
7:55 PM 22.6 °F 11.3 °F 9.9 °F 58% 30.12 in 10.0 mi WSW 11.5 mph 16.1 mph N/A   Overcast
8:15 PM 22.5 °F 12.4 °F 10.0 °F 59% 30.11 in 10.0 mi WSW 9.2 mph - N/A   Overcast
8:22 PM 22.5 °F 11.1 °F 10.4 °F 60% 30.12 in 10.0 mi WSW 11.5 mph - N/A   Overcast
8:45 PM 21.2 °F 8.3 °F 8.6 °F 58% 30.12 in 10.0 mi West 13.8 mph 18.4 mph N/A   Overcast
9:05 PM 21.2 °F 9.5 °F 10.4 °F 63% 30.11 in 10.0 mi West 11.5 mph - N/A   Overcast
9:25 PM 21.2 °F 10.1 °F 10.4 °F 63% 30.11 in 10.0 mi West 10.4 mph 16.1 mph N/A   Overcast
9:45 PM 21.2 °F 11.7 °F 10.4 °F 63% 30.11 in 10.0 mi WNW 8.1 mph - N/A   Overcast
10:05 PM 21.2 °F 10.9 °F 10.4 °F 63% 30.11 in 10.0 mi West 9.2 mph - N/A   Overcast
10:25 PM 21.2 °F 8.3 °F 8.6 °F 58% 30.11 in 10.0 mi West 13.8 mph - N/A   Overcast
10:45 PM 21.2 °F 10.1 °F 8.6 °F 58% 30.11 in 10.0 mi West 10.4 mph - N/A   Overcast
11:05 PM 21.2 °F 10.1 °F 8.6 °F 58% 30.10 in 10.0 mi West 10.4 mph - N/A   Overcast
11:25 PM 21.2 °F 8.9 °F 8.6 °F 58% 30.10 in 10.0 mi West 12.7 mph - N/A   Overcast
11:45 PM 19.4 °F 6.6 °F 8.6 °F 63% 30.10 in 10.0 mi West 12.7 mph - N/A   Overcast